This demonstration page uses our WeatherBlox Daily Observations layout. Learn more.

36.17497, -115.13722

Hourly Observations for May 22, 2018

Temp ( °F °C ) Dew Point ( °F °C ) Humidity (%) Winds ( mph kmh ) Pressure ( in mb ) Visibility ( mi km ) Precip ( " mm )
12:53 am 00:53 Mostly Clear 74 23.3 37 2.8 26 26 N 10 17 29.71 1006 10 16.09344 0 0
1:53 am 01:53 Clear 72 22.2 38 3.3 29 29 NNW 12 19 29.71 1006 10 16.09344 0 0
2:53 am 02:53 Clear 71 21.7 39 3.9 31 31 N 10 17 29.71 1006 10 16.09344 0 0
3:53 am 03:53 Clear 70 21.1 38 3.3 31 31 N 9 15 29.71 1006 10 16.09344 0 0
4:53 am 04:53 Clear 68 20 38 3.3 33 33 N 8 13 29.71 1006 10 16.09344 0 0
5:53 am 05:53 Sunny 68 20 39 3.9 35 35 NNW 7 11 29.74 1007 10 16.09344 0 0
6:53 am 06:53 Sunny 69 20.6 39 3.9 33 33 N 12 19 29.77 1008 10 16.09344 0 0
7:53 am 07:53 Sunny 73 22.8 40 4.4 30 30 N 8 13 29.77 1008 10 16.09344 0 0
8:53 am 08:53 Sunny 76 24.4 37 2.8 24 24 undefined N/A 29.8 1009 10 16.09344 0 0
9:53 am 09:53 Sunny 79 26.1 37 2.8 22 22 ESE 9 15 29.8 1009 10 16.09344 0 0
10:53 am 10:53 Sunny 80 26.7 34 1.1 19 19 E 5 7 29.8 1009 10 16.09344 0 0
11:53 am 11:53 Sunny 81 27.2 31 -0.6 16 16 Calm 29.77 1008 10 16.09344 0 0
12:53 pm 12:53 Sunny 83 28.3 30 -1.1 15 15 WSW 8 13 29.77 1008 10 16.09344 0 0
1:53 pm 13:53 Mostly Cloudy 82 27.8 33 0.6 17 17 SSE 10 17 29.74 1007 10 16.09344 0 0
2:53 pm 14:53 Sunny 83 28.3 31 -0.6 15 15 N 3 6 29.74 1007 10 16.09344 0 0
3:53 pm 15:53 Sunny 85 29.4 31 -0.6 14 14 N 3 6 29.71 1006 10 16.09344 0 0
4:53 pm 16:53 Partly Cloudy 84 28.9 32 0 15 15 E 8 13 29.71 1006 10 16.09344 0 0
5:53 pm 17:53 Mostly Sunny 83 28.3 33 0.6 17 17 ESE 8 13 29.71 1006 10 16.09344 0 0
6:53 pm 18:53 Sunny 82 27.8 33 0.6 17 17 E 6 9 29.71 1006 10 16.09344 0 0
7:53 pm 19:53 Clear 81 27.2 32 0 17 17 E 8 13 29.74 1007 10 16.09344 0 0
8:53 pm 20:53 Clear 80 26.7 33 0.6 18 18 ENE 5 7 29.74 1007 10 16.09344 0 0
9:53 pm 21:53 Clear 79 26.1 34 1.1 20 20 Calm 29.74 1007 10 16.09344 0 0
10:53 pm 22:53 Clear 76 24.4 36 2.2 23 23 WNW 3 6 29.77 1008 10 16.09344 0 0
11:53 pm 23:53 Clear 73 22.8 36 2.2 26 26 W 6 9 29.77 1008 10 16.09344 0 0

Powered by AerisWeather